Date,TemperatureHighF,TemperatureAvgF,TemperatureLowF,DewpointHighF,DewpointAvgF,DewpointLowF,HumidityHigh,HumidityAvg,HumidityLow,PressureMaxIn,PressureMinIn,WindSpeedMaxMPH,WindSpeedAvgMPH,GustSpeedMaxMPH,PrecipitationSumIn
2013-3-1,41.0,36.3,34.0,40.0,36.3,34.0,100,100,100,30.33,30.27,16,5,24,0.01
2013-3-2,52.0,44.2,36.0,52.0,44.2,36.0,100,100,100,30.27,29.88,15,5,18,0.02
2013-3-3,44.0,36.2,29.0,44.0,36.2,29.0,100,100,100,30.14,29.88,12,6,23,0.01
2013-3-4,44.0,33.2,25.0,44.0,33.2,25.0,100,100,100,30.26,30.05,10,3,13,0.04
2013-3-5,38.0,31.7,26.0,38.0,31.7,26.0,100,100,100,30.06,29.80,12,2,16,0.02
2013-3-6,45.0,35.2,31.0,45.0,35.2,31.0,100,100,100,29.80,29.56,10,1,15,0.06
2013-3-7,46.0,35.4,30.0,46.0,35.4,30.0,100,100,100,30.04,29.80,13,2,15,0.09
2013-3-8,42.0,32.4,27.0,42.0,32.4,27.0,100,100,100,30.11,30.02,7,2,8,0.02
2013-3-9,51.0,37.4,27.0,51.0,37.4,27.0,100,100,100,30.39,30.11,9,1,12,0.02
2013-3-10,42.0,35.1,28.0,42.0,35.1,28.0,100,100,100,30.39,30.22,14,5,18,0.03
2013-3-11,49.0,37.6,29.0,49.0,37.6,29.0,100,100,100,30.31,30.21,12,2,14,0.02
2013-3-12,54.0,42.7,37.0,54.0,42.7,37.0,100,100,100,30.21,30.05,16,6,22,0.01
2013-3-13,53.0,49.8,48.0,53.0,49.8,48.0,100,100,100,30.15,30.13,6,1,7,0.01
2013-3-14,59.0,49.1,42.0,59.0,49.1,42.0,100,100,100,30.14,29.99,14,4,21,0.01
2013-3-15,54.0,42.9,38.0,54.0,42.9,38.0,100,100,100,30.16,30.02,12,6,15,0.00
2013-3-17,46.0,38.4,30.0,46.0,38.4,30.0,100,100,100,29.99,29.92,12,7,22,0.01
2013-3-18,45.0,32.1,26.0,45.0,32.1,26.0,100,100,100,30.15,29.95,16,7,26,0.01
2013-3-19,47.0,33.5,22.0,47.0,33.5,22.0,100,100,100,30.24,29.82,15,4,20,0.00
2013-3-20,50.0,42.4,34.0,50.0,42.4,33.0,100,100,100,29.82,29.48,20,6,28,0.15
2013-3-21,44.0,33.4,27.0,44.0,33.4,27.0,100,100,100,29.99,29.75,14,6,24,0.01
2013-3-22,44.0,30.6,22.0,44.0,30.6,22.0,100,100,100,30.21,29.98,10,2,15,0.00
2013-3-23,44.0,29.6,19.0,44.0,29.6,19.0,100,100,100,30.31,30.21,10,2,13,0.00
2013-3-24,44.0,32.0,23.0,44.0,32.0,23.0,100,100,100,30.32,30.16,8,3,14,0.00
2013-3-25,50.0,35.3,23.0,50.0,35.3,23.0,100,100,100,30.16,29.98,10,2,13,0.00
2013-3-26,55.0,39.0,28.0,55.0,39.0,28.0,100,100,100,30.00,29.94,7,1,9,0.00
2013-3-27,54.0,43.4,34.0,54.0,43.4,34.0,100,100,100,30.00,29.93,8,2,10,0.00
2013-3-28,59.0,45.5,34.0,59.0,45.5,34.0,100,100,100,30.10,29.99,9,2,13,0.00
2013-3-29,61.0,45.5,35.0,61.0,43.8,-99.9,100,98,100,30.22,30.09,10,3,15,0.00
2013-3-30,64.0,47.4,33.0,64.0,46.0,-99.9,100,100,100,30.29,30.14,8,1,10,0.00
2013-3-31,66.0,48.5,34.0,66.0,48.5,34.0,100,100,100,30.14,29.95,7,2,23,0.00